Location: Unspecified
(41.5516°N, 88.1098°W)
Time: 22:34:49
(UTC-06:00)

Hubble Space Telescope - Visible Passes

Search period start: 12 February 2016 00:00
Search period end: 22 February 2016 00:00
Orbit: 540 x 543 km, 28.5° (Epoch: 12 February)

Date Brightness Start Highest point End Pass type
(mag) Time Alt. Az. Time Alt. Az. Time Alt. Az.
13 Feb 3.2 18:48:50 10° S 18:49:57 11° S 18:51:03 10° SSE visible
14 Feb 3.2 18:38:46 10° SSW 18:40:22 12° S 18:41:57 10° SSE visible
15 Feb 3.2 18:28:56 10° SSW 18:30:46 13° S 18:32:38 10° SSE visible
16 Feb 3.2 18:19:12 10° SSW 18:21:11 13° S 18:23:10 10° SSE visible
17 Feb 3.2 18:09:34 10° SSW 18:11:36 13° S 18:13:38 10° SSE visible
18 Feb 3.3 18:00:02 10° SSW 18:02:01 13° S 18:03:59 10° SSE visible
